sat.trackr.live / text

‹ back to catalog

STARLINK-36244

NORAD 68145 · 2026-049D

PAYLOAD ACTIVE UNKNOWN

§ Identity

Operator
Country
US
Launch date
2026-03-13
Launch site
AFWTR
Launch vehicle
Mass (kg)
RCS (m²)

Purposes: comms

External: N2YO · Heavens-Above · Gunter

§ Orbital elements

Epoch: 2026-05-25T00:15:25.083936Z

Period
93.91 min
Inclination
97.2835°
Eccentricity
0.0001134
Mean motion
15.33446819 rev/d
Perigee alt
464.8 km
Apogee alt
466.3 km
Semi-major
6,843.7 km
B*
5.1601e-4
RAAN
166.6665°
Arg perigee
111.1793°
Mean anomaly
248.9571°
Rev number
1,134

§ Raw data

STARLINK-362441 68145U 26049D   26145.01070699  .00016621  00000+0  51601-3 0  99962 68145  97.2835 166.6665 0001134 111.1793 248.9571 15.33446819 11347

JSON: /api/v1/satellites/68145 · /tle

For live sub-satellite position, see the globe view (requires WebGL).

§ Visibility from observer

Set your observer location to see the next 7 days of passes ≥ 10°. The values pass through the URL so the page stays shareable.

No JS? Fill the form by hand. The geolocation button needs JavaScript.